Weather Roundup
Issued by NWS

Home | Current Version | Previous Version | Text Only | Print | Product List | Glossary On
Versions: 1 2 3 4 5 6 7 8 9 10 11 12 13 14 15 16 17 18 19 20 21 22 23 24 25 26 27 28 29 30 31 32 33 34 35 36 37 38 39 40 41 42 43 44 45 46 47 48 49 50
000
NZUS93 KARX 240610
HRRWXR

CURRENT HOURLY OBSERVATIONS ACROSS
MUCH OF THE UPPER MISSISSIPPI VALLEY
NATIONAL WEATHER SERVICE LA CROSSE WI
100 AM CDT SUN MAY 24 2015


...SOUTHEAST MINNESOTA...


CITY           SKY/WX    TMP DP  RH WIND       PRES   REMARKS
ROCHESTER      CLOUDY    61  48  62 SE6       30.13F
ROCHESTER/MAYO CLOUDY    65  47  52 SE5       30.12F
WINONA         CLOUDY    59  54  82 CALM      30.13F
AUSTIN         CLOUDY    64  48  55 SE3       30.11S
ALBERT LEA     CLOUDY    63  54  72 CALM      30.10F
DODGE CENTER   CLOUDY    64  48  55 E6        30.12S
PRESTON        CLOUDY    62  49  62 SE5       30.14S
OWATONNA       CLOUDY    63  54  72 SE6       30.11F
FARIBAULT      CLOUDY    61  52  72 NE5       30.11F
$$

...ELSEWHERE IN MINNESOTA...


CITY           SKY/WX    TMP DP  RH WIND       PRES   REMARKS
MINNEAPOLIS    CLOUDY    62  47  57 E8        30.11F
INTNL FALLS    CLEAR     54  42  64 SW6       30.11R
DULUTH         CLEAR     55  42  61 CALM      30.14F
RED WING       CLOUDY    63  45  51 E5        30.11F
REDWOOD FALLS  CLOUDY    62  49  62 E7        30.08F
MANKATO        CLOUDY    63  52  67 NE8       30.10F
WORTHINGTON    CLOUDY    61  50  67 CALM      30.09R
FAIRMONT       CLOUDY    63  48  59 E8        30.09S
$$

...SOUTHWEST WISCONSIN...


CITY           SKY/WX    TMP DP  RH WIND       PRES   REMARKS
LA CROSSE      MOCLDY    61  50  67 CALM      30.12F
PRAIRIE DU CHI CLOUDY    58  48  71 E3        30.13F
BOSCOBEL       PTCLDY    52  49  89 CALM      30.15F
LONE ROCK      PTCLDY    55  48  77 CALM      30.15F
PLATTEVILLE    PTCLDY    63  48  59 E6        30.15S
FORT MC COY    PTCLDY    51  47  87 CALM      30.15F
CAMP DOUGLAS   PTCLDY    51  51 100 E5        30.14F
VIROQUA        FAIR      62  44  52 SE7       30.15F
WIS DELLS      CLEAR     56  44  64 CALM      30.16F
$$

...ELSEWHERE IN WISCONSIN...


CITY           SKY/WX    TMP DP  RH WIND       PRES   REMARKS
MILWAUKEE      PTCLDY    56  39  53 CALM      30.19F
MADISON        CLEAR     55  47  74 CALM      30.16F
GREEN BAY      PTCLDY    62  43  49 S6        30.18S
EAU CLAIRE     CLOUDY    58  46  64 NE5       30.14F
BLACK RVR FLS  FAIR      49  48  95 CALM      30.14F
MEDFORD        CLOUDY    56  52  87 CALM      30.17F
WAUSAU         LGT RAIN  60  49  66 N3        30.17S
WIS RAPIDS     CLOUDY    60  45  57 CALM      30.17F
MARSHFIELD     CLOUDY    62  45  53 E3        30.17F
RICE LAKE      LGT RAIN  58  52  79 CALM      30.18S
$$

...NORTHEAST IOWA...


CITY           SKY/WX    TMP DP  RH WIND       PRES   REMARKS
DECORAH        CLOUDY    63  48  59 SE5       30.13S
MASON CITY     CLOUDY    64  53  67 E3        30.11S
CHARLES CITY   CLOUDY    64  50  59 E5        30.11F
OELWEIN        CLOUDY    63  48  59 E6        30.12S
$$

...ELSEWHERE IN IOWA...


CITY           SKY/WX    TMP DP  RH WIND       PRES   REMARKS
DES MOINES     CLOUDY    68  53  58 SE10      30.07S
IOWA CITY      CLOUDY    64  52  64 SE5       30.13S
FORT DODGE     CLOUDY    63  54  72 E3        30.08R
$$

...NORTHERN ILLINOIS...


CITY           SKY/WX    TMP DP  RH WIND       PRES   REMARKS
CHICAGO-OHARE  PTCLDY    65  45  48 S5        30.19F
CHICAGO-MIDWAY MOCLDY    69  45  41 S6        30.19F
MOLINE         CLOUDY    65  50  58 SE6       30.14R
ROCKFORD       CLOUDY    60  51  72 CALM      30.19S
PEORIA         CLOUDY    70  51  51 SE6       30.16S
$$

NOTE: "FAIR" INDICATES FEW OR NO CLOUDS BELOW 12,000 FEET WITH NO
SIGNIFICANT WEATHER AND/OR OBSTRUCTIONS TO VISIBILITY. WIND
SPEEDS ARE IN MILES-PER-HOUR.



USA.gov is the U.S. government's official web portal to all federal, state and local government web resources and services.